SCP
-0 -0 -0 -0 -0 0 0 -0 -0 0 0 0 0 0 0 0 1 1 0 0 0 0 0 0 0 0 0 0 0 0 0 0
0 -0 -0 -0 -0 0 -0 -0 -0 -0 0 0 0 0 0 1 1 0 0 0 0 0 0 0 0 0 0 0 0 0 0 0
0 0 -0 -0 -0 0 0 0 0 0 0 0 0 0 0 0 0 0 0 0 0 0 0 0 0 0 0 1 0 0 0 0
0 0 0 0 0 0 0 0 0 0 0 0 0 0 0 0 0 0 0 0 0 0 0 0 0 0 0 0 0 0 0 0
0 -0 -0 0 -0 0 -0 0 0 0 0 0 0 0 0 0 0 0 1 0 0 0 0 0 0 0 0 0 0 0 0 0
-0 0 0 0 -0 -0 -0 -0 0 0 0 0 0 0 0 0 0 0 0 0 0 0 0 0 0 0 0 0 0 0 0 0
0 0 0 0 0 0 0 -0 0 0 0 0 0 0 0 0 0 0 1 1 1 0 0 0 0 0 0 0 0 0 0 0
1 -0 0 1 0 0 1 0 0 0 0 1 1 0 0 0 0 0 0 0 0 0 0 0 0 0 0 0 0 0 0 0
-0 0 0 1 2 1 2 1 0 0 1 2 0 1 1 0 0 0 1 1 1 1 1 1 0 1 0 0 0 0 0 0
-0 -0 0 1 1 1 1 2 0 0 0 0 0 0 0 1 1 1 1 1 0 0 0 0 0 0 0 0 0 0 0 0
0 0 -0 -0 -0 0 1 1 1 1 1 1 0 0 0 0 0 0 0 0 0 0 0 0 0 0 0 0 1 0 1 1
0 -0 -0 0 -0 -0 -0 0 0 0 0 0 0 1 1 0 0 0 0 0 1 0 1 1 1 1 1 1 1 1 0 0
-0 -0 -0 0 0 0 -0 0 0 0 0 0 0 1 0 0 0 0 0 0 1 1 1 1 1 2 1 2 2 2 2 3
-0 0 0 0 0 -0 -0 0 0 0 0 0 0 0 0 0 0 1 1 1 1 1 1 0 0 1 1 1 1 1 2 2
0 0 0 0 0 -0 0 0 0 0 0 0 0 0 0 0 0 0 0 0 0 1 1 1 0 0 0 0 0 1 2 2
0 0 0 0 0 -0 0 0 0 0 0 0 0 0 0 0 0 0 0 0 0 0 0 0 1 0 0 0 1 0 0 1
0 0 0 0 0 0 -0 0 0 0 0 0 0 0 0 0 0 0 0 0 0 0 0 0 0 1 0 1 1 1 0 0
0 0 0 0 -0 0 0 0 0 0 0 0 0 0 0 0 0 0 0 0 0 0 0 0 0 0 0 1 1 1 1 0
0 0 0 0 0 0 0 0 0 0 0 0 0 0 0 0 0 0 0 0 0 0 0 0 0 0 0 0 0 0 1 1
Wind_Speed_500mb
16 15 20 20 20 21 20 20 19 18 23 29 32 31 30 29 30 25 25 26 28 28 29 30 30 29 31 33 35 36 34 33
18 14 20 20 18 18 19 20 20 20 23 27 30 31 29 28 28 25 27 29 31 32 33 34 34 35 36 37 39 41 40 40
21 17 19 20 18 17 16 17 19 21 22 23 26 28 27 28 30 33 33 34 35 36 36 37 37 39 40 41 43 44 44 46
22 15 18 20 21 19 18 17 17 17 19 22 25 27 30 33 35 35 37 37 38 39 41 41 43 44 45 47 48 49 50 51
17 14 12 13 13 15 17 19 20 21 23 24 25 27 28 30 32 33 35 37 39 40 43 45 46 47 49 51 53 54 55 56
11 9 10 11 11 6 17 17 21 27 27 27 28 28 29 28 26 26 29 33 39 44 47 50 51 52 52 54 55 55 56 62
23 6 1 7 8 7 10 19 13 19 19 22 22 25 26 25 26 27 23 38 46 45 49 55 55 55 55 57 46 47 50 50
28 36 4 7 8 9 8 15 16 20 23 18 21 26 31 29 31 32 33 39 39 41 37 45 52 58 58 51 48 46 50 45
35 29 14 9 9 8 9 12 23 18 15 21 23 29 40 33 40 42 43 45 42 40 40 38 44 47 46 45 47 49 50 56
35 28 28 19 2 23 36 31 20 14 23 18 31 37 53 38 45 44 52 47 44 45 48 47 48 51 53 54 55 56 55 58
43 41 37 28 23 28 27 31 23 40 32 19 38 41 43 41 40 42 43 44 45 43 45 49 52 53 54 55 56 56 60 59
41 44 46 41 46 42 38 33 37 31 16 25 48 40 50 40 42 46 44 48 51 52 50 48 51 56 58 61 58 57 58 60
36 40 37 37 36 33 25 23 21 24 22 21 20 24 34 40 43 50 55 54 57 64 66 63 55 52 53 53 49 57 51 57
33 33 32 32 31 30 29 30 30 32 33 30 28 31 35 38 40 49 55 56 53 59 52 55 56 52 61 68 65 64 70 68
29 30 31 31 30 28 30 30 31 32 29 30 31 35 39 42 46 49 51 56 49 56 56 58 60 50 47 53 60 64 58 59
25 28 29 31 36 36 34 37 41 39 35 33 31 33 44 43 41 53 53 55 49 45 48 43 49 51 51 47 51 51 63 66
20 22 25 28 29 33 34 36 39 38 38 39 39 44 41 36 49 48 52 53 57 48 41 45 46 54 50 45 53 53 51 50
18 20 22 26 29 30 33 34 40 38 40 40 43 42 46 52 47 44 44 45 53 50 48 40 40 43 53 46 44 50 19 25
18 12 17 21 27 32 33 37 39 43 49 49 49 50 58 46 43 42 47 45 45 50 49 38 41 37 39 49 49 48 69 48
Wind_Direction_500mb
110 149 159 160 157 159 167 183 193 200 201 204 210 215 216 216 215 222 228 230 224 218 217 217 217 221 225 228 230 233 238 243
110 157 164 163 160 164 172 185 197 204 211 218 224 227 227 228 225 235 240 239 234 229 228 229 232 234 237 237 239 242 245 249
115 135 158 167 171 169 175 181 192 203 212 219 227 232 230 235 235 238 242 239 237 235 236 239 239 241 243 246 248 250 250 251
102 122 146 167 180 185 188 191 195 201 207 217 222 226 230 232 238 243 244 241 239 239 240 241 242 243 244 247 252 254 256 256
104 104 123 155 183 197 213 205 211 215 216 217 220 226 230 234 240 245 248 246 246 246 247 247 247 248 250 252 252 254 254 255
76 94 123 144 170 179 222 249 257 237 231 233 233 233 237 238 247 264 270 262 260 254 253 254 254 254 255 256 257 259 261 259
31 35 138 148 167 174 200 258 286 269 265 257 249 256 270 246 237 236 235 245 259 266 262 257 256 257 257 256 256 266 266 259
47 348 199 177 161 160 204 236 244 240 242 226 245 249 256 250 250 250 251 259 269 280 268 265 263 260 253 250 251 252 254 251
66 346 49 86 132 175 180 308 249 231 259 237 279 255 258 251 256 243 238 230 238 246 257 252 250 250 252 250 251 250 250 250
54 55 56 76 114 283 288 288 307 288 273 256 280 273 279 253 258 251 260 257 251 251 254 256 254 253 251 247 248 248 250 250
54 51 54 43 35 13 336 305 287 293 276 257 224 262 259 255 257 262 269 275 272 262 261 261 259 257 258 256 251 252 252 250
56 56 52 50 57 48 43 29 12 9 344 244 242 226 238 259 270 266 268 269 272 274 262 260 262 256 254 253 253 252 252 255
58 53 54 52 46 44 39 21 1 344 338 337 324 304 288 275 276 276 280 271 266 263 257 259 253 259 256 265 265 258 252 249
56 54 49 42 36 30 18 8 358 343 335 331 324 323 315 306 302 299 293 288 272 270 270 275 273 269 264 260 259 262 256 254
49 47 40 35 40 24 9 2 352 341 329 324 323 315 314 312 306 301 295 302 296 276 273 276 273 268 261 263 263 258 261 262
42 33 28 21 20 24 2 1 355 349 340 330 322 313 309 313 307 307 303 304 304 301 278 266 266 267 272 264 262 262 255 257
31 24 18 16 6 9 11 360 355 349 340 333 326 322 324 315 319 313 311 304 306 304 294 287 278 280 268 264 260 259 261 269
358 358 360 0 6 1 2 356 353 350 342 335 332 327 319 318 315 308 308 305 298 298 294 294 293 279 279 280 261 260 270 249
358 355 5 354 356 356 356 354 356 347 342 334 328 323 323 324 319 312 307 302 299 293 299 292 297 296 289 282 274 267 243 249
Wind_Speed_850mb
16 15 20 20 20 21 20 20 19 18 23 29 32 31 30 29 30 25 25 26 28 28 29 30 30 29 31 33 35 36 34 33
18 14 20 20 18 18 19 20 20 20 23 27 30 31 29 28 28 25 27 29 31 32 33 34 34 35 36 37 39 41 40 40
21 17 19 20 18 17 16 17 19 21 22 23 26 28 27 28 30 33 33 34 35 36 36 37 37 39 40 41 43 44 44 46
22 15 18 20 21 19 18 17 17 17 19 22 25 27 30 33 35 35 37 37 38 39 41 41 43 44 45 47 48 49 50 51
17 14 12 13 13 15 17 19 20 21 23 24 25 27 28 30 32 33 35 37 39 40 43 45 46 47 49 51 53 54 55 56
11 9 10 11 11 6 17 17 21 27 27 27 28 28 29 28 26 26 29 33 39 44 47 50 51 52 52 54 55 55 56 62
23 6 1 7 8 7 10 19 13 19 19 22 22 25 26 25 26 27 23 38 46 45 49 55 55 55 55 57 46 47 50 50
28 36 4 7 8 9 8 15 16 20 23 18 21 26 31 29 31 32 33 39 39 41 37 45 52 58 58 51 48 46 50 45
35 29 14 9 9 8 9 12 23 18 15 21 23 29 40 33 40 42 43 45 42 40 40 38 44 47 46 45 47 49 50 56
35 28 28 19 2 23 36 31 20 14 23 18 31 37 53 38 45 44 52 47 44 45 48 47 48 51 53 54 55 56 55 58
43 41 37 28 23 28 27 31 23 40 32 19 38 41 43 41 40 42 43 44 45 43 45 49 52 53 54 55 56 56 60 59
41 44 46 41 46 42 38 33 37 31 16 25 48 40 50 40 42 46 44 48 51 52 50 48 51 56 58 61 58 57 58 60
36 40 37 37 36 33 25 23 21 24 22 21 20 24 34 40 43 50 55 54 57 64 66 63 55 52 53 53 49 57 51 57
33 33 32 32 31 30 29 30 30 32 33 30 28 31 35 38 40 49 55 56 53 59 52 55 56 52 61 68 65 64 70 68
29 30 31 31 30 28 30 30 31 32 29 30 31 35 39 42 46 49 51 56 49 56 56 58 60 50 47 53 60 64 58 59
25 28 29 31 36 36 34 37 41 39 35 33 31 33 44 43 41 53 53 55 49 45 48 43 49 51 51 47 51 51 63 66
20 22 25 28 29 33 34 36 39 38 38 39 39 44 41 36 49 48 52 53 57 48 41 45 46 54 50 45 53 53 51 50
18 20 22 26 29 30 33 34 40 38 40 40 43 42 46 52 47 44 44 45 53 50 48 40 40 43 53 46 44 50 19 25
18 12 17 21 27 32 33 37 39 43 49 49 49 50 58 46 43 42 47 45 45 50 49 38 41 37 39 49 49 48 69 48
Wind_Direction_850mb
110 149 159 160 157 159 167 183 193 200 201 204 210 215 216 216 215 222 228 230 224 218 217 217 217 221 225 228 230 233 238 243
110 157 164 163 160 164 172 185 197 204 211 218 224 227 227 228 225 235 240 239 234 229 228 229 232 234 237 237 239 242 245 249
115 135 158 167 171 169 175 181 192 203 212 219 227 232 230 235 235 238 242 239 237 235 236 239 239 241 243 246 248 250 250 251
102 122 146 167 180 185 188 191 195 201 207 217 222 226 230 232 238 243 244 241 239 239 240 241 242 243 244 247 252 254 256 256
104 104 123 155 183 197 213 205 211 215 216 217 220 226 230 234 240 245 248 246 246 246 247 247 247 248 250 252 252 254 254 255
76 94 123 144 170 179 222 249 257 237 231 233 233 233 237 238 247 264 270 262 260 254 253 254 254 254 255 256 257 259 261 259
31 35 138 148 167 174 200 258 286 269 265 257 249 256 270 246 237 236 235 245 259 266 262 257 256 257 257 256 256 266 266 259
47 348 199 177 161 160 204 236 244 240 242 226 245 249 256 250 250 250 251 259 269 280 268 265 263 260 253 250 251 252 254 251
66 346 49 86 132 175 180 308 249 231 259 237 279 255 258 251 256 243 238 230 238 246 257 252 250 250 252 250 251 250 250 250
54 55 56 76 114 283 288 288 307 288 273 256 280 273 279 253 258 251 260 257 251 251 254 256 254 253 251 247 248 248 250 250
54 51 54 43 35 13 336 305 287 293 276 257 224 262 259 255 257 262 269 275 272 262 261 261 259 257 258 256 251 252 252 250
56 56 52 50 57 48 43 29 12 9 344 244 242 226 238 259 270 266 268 269 272 274 262 260 262 256 254 253 253 252 252 255
58 53 54 52 46 44 39 21 1 344 338 337 324 304 288 275 276 276 280 271 266 263 257 259 253 259 256 265 265 258 252 249
56 54 49 42 36 30 18 8 358 343 335 331 324 323 315 306 302 299 293 288 272 270 270 275 273 269 264 260 259 262 256 254
49 47 40 35 40 24 9 2 352 341 329 324 323 315 314 312 306 301 295 302 296 276 273 276 273 268 261 263 263 258 261 262
42 33 28 21 20 24 2 1 355 349 340 330 322 313 309 313 307 307 303 304 304 301 278 266 266 267 272 264 262 262 255 257
31 24 18 16 6 9 11 360 355 349 340 333 326 322 324 315 319 313 311 304 306 304 294 287 278 280 268 264 260 259 261 269
358 358 360 0 6 1 2 356 353 350 342 335 332 327 319 318 315 308 308 305 298 298 294 294 293 279 279 280 261 260 270 249
358 355 5 354 356 356 356 354 356 347 342 334 328 323 323 324 319 312 307 302 299 293 299 292 297 296 289 282 274 267 243 249